Location: *
(46.1006°N, 1.8394°E)
Time: 04:08:32
(UTC+00:00)

Cosmos 1943 - Pass Details

Date: 20 September 2019
Orbit: 833 x 851 km, 71.0° (Epoch: 18 October)

Event Time Altitude Azimuth Distance (km) Brightness Sun altitude
Rises 20:44:52 0° 337° (NNW) 3,426 7.2 -28.4°
Reaches altitude 10° 20:47:29 10° 345° (NNW) 2,485 6.2 -28.8°
Enters shadow 20:51:50 38° 29° (NNE) 1,282 4.1 -29.4°
